Regional Weather Roundup
Issued by NWS

Home | Current Version | Previous Version | Text Only | Print | Product List | Glossary Off
Versions: 1 2 3 4 5 6 7 8 9 10 11 12 13 14 15 16 17 18 19 20 21 22 23 24 25 26 27 28 29 30 31 32 33 34 35 36 37 38 39 40 41 42 43 44 45 46 47 48 49 50

000
ASUS43 KLOT 250710
RWRIL

ILLINOIS REGIONAL WEATHER ROUNDUP
NATIONAL WEATHER SERVICE CHICAGO/ROMEOVILLE IL
100 AM CST THU DEC 25 2014

NOTE: "FAIR" INDICATES FEW OR NO CLOUDS BELOW 12,000 FEET WITH NO
SIGNIFICANT WEATHER AND/OR OBSTRUCTIONS TO VISIBILITY.

* THESE STATIONS ARE NOT UNDER NWS QUALITY CONTROL. THEY ALSO MAY NOT
  REPORT WEATHER SUCH AS PRECIPITATION OR FOG.

ILZ001-002-007-009-015-016-024-250800-
NORTHWEST ILLINOIS

CITY           SKY/WX    TMP DP  RH WIND       PRES   REMARKS
MOLINE         CLOUDY    34  28  79 W13       29.76R WCI  25
STERLING*      CLOUDY    34  28  80 W16       29.73R WCI  23
SAVANNA*       CLOUDY    35  28  77 W9G17     29.72R WCI  28
$$

ILZ003-004-008-010-011-017-018-250800-
NORTH CENTRAL ILLINOIS

CITY           SKY/WX    TMP DP  RH WIND       PRES   REMARKS
ROCKFORD       CLOUDY    35  31  85 W13G20    29.70R WCI  26
FREEPORT*      CLOUDY    33  29  85 W12G18    29.71R WCI  25
ROCHELLE*      CLOUDY    34  32  92 W14       29.71R WCI  24
DE KALB*       CLOUDY    33  31  92 W14G21    29.69R WCI  23
PERU*          MOCLDY    34  31  89 W14       29.75R WCI  25
$$

ILZ005-006-012>014-019>023-250800-
NORTHEAST ILLINOIS

CITY           SKY/WX    TMP DP  RH WIND       PRES   REMARKS
CHICAGO-OHARE  CLOUDY    36  31  82 W16G22    29.67R WCI  26
CHICAGO-MIDWAY CLOUDY    38  32  79 W15       29.67R WCI  29
AURORA         CLOUDY    36  32  85 W15       29.69R WCI  27
LANSING*       CLOUDY    36  32  87 W14       29.68R WCI  27
JOLIET*        CLOUDY    36  33  88 W9G16     29.71R WCI  29
WAUKEGAN       CLOUDY    36  30  79 W10       29.63R WCI  28
DUPAGE AIRPORT CLOUDY    36  32  85 W14       29.67R WCI  27
KANKAKEE*      CLOUDY    36  34  92 W14       29.73R WCI  27
WHEELING       MOCLDY    36  30  79 W10       29.67R WCI  28
MORRIS*        CLOUDY    36  34  92 W15       29.71R WCI  27
ROMEOVILLE*    CLOUDY    36  33  92 W16       29.70R WCI  26
NORTHERLY ISL    N/A     37  31  79 W10         N/A  WCI  30
$$

LMZ740>746-250800-
SOUTHERN LAKE MICHIGAN

STATION/POSITION SKY/WX   TEMP    WIND        PRES    VSBY  WAVE
                          AIR SEA DIR/SP/G                  HT/PER
                          (F)     (DEG/KT/KT) (MB)    (MI)  (FT/S)
WAUKEGAN HARBOR            36                   N/A
HARRISON CRIB              37     270/ 20/ 23   N/A
BURNHAM HARBOR             37     250/  8/ 15   N/A
CALUMET HARBOR             37     250/  7/ 11 1003.6R
MICHIGAN CITY              37     240/ 24/ 27   N/A
$$

ILZ025>027-034>036-040-047-049-050-058-095>099-250800-
WEST-CENTRAL ILLINOIS

CITY           SKY/WX    TMP DP  RH WIND       PRES   REMARKS
QUINCY         CLOUDY    35  29  78 W12       29.82S WCI  27
GALESBURG*     CLOUDY    34  31  88 W7        29.77S WCI  28
MACOMB*        CLOUDY    34  31  87 W10       29.82R WCI  26
JACKSONVILLE*  CLOUDY    38  32  80 SW7       29.84R WCI  32
PITTSFIELD*    CLOUDY    37  31  81 W7        29.85R WCI  31
$$

ILZ028>032-037-038-041>044-048-051>054-059>061-250800-
CENTRAL ILLINOIS

CITY           SKY/WX    TMP DP  RH WIND       PRES   REMARKS
PONTIAC        CLOUDY    37  33  88 W17       29.76R WCI  27
BLOOMINGTON    MOCLDY    35  30  82 W13       29.79R WCI  26
DECATUR        CLOUDY    37  32  82 W10       29.82R WCI  30
PEORIA         CLOUDY    37  29  72 W10       29.80R WCI  30
LACON*         MOCLDY    34  29  80 W6        29.77R WCI  29
LINCOLN*       CLOUDY    37  32  80 W7        29.81R WCI  32
SPRINGFIELD    CLOUDY    37  31  78 W10       29.84R WCI  30
TAYLORVILLE    CLOUDY    34  32  93 W10       29.84R WCI  26
$$

ILZ033-039-045-046-055>057-062-063-250800-
EAST-CENTRAL ILLINOIS

CITY           SKY/WX    TMP DP  RH WIND       PRES   REMARKS
CHAMPAIGN      CLOUDY    36  31  82 W14       29.79R WCI  27
DANVILLE*      CLOUDY    35  33  93 W14       29.74R WCI  26
RANTOUL*       CLOUDY    37  33  84 W14G21    29.78R WCI  29
MATTOON        CLOUDY    36  32  85 W8        29.82R WCI  30
PARIS*         CLOUDY    37  34  90 W15G22    29.81R WCI  27
$$

ILZ079-100>102-250800-
SOUTHWEST ILLINOIS

CITY           SKY/WX    TMP DP  RH WIND       PRES   REMARKS
ALTON          CLOUDY    37  32  84 W9        29.87S WCI  30
BELLEVILLE     CLOUDY    37  37 100 SW7       29.89R WCI  32
CAHOKIA*       CLOUDY    39  34  82 W9        29.89R WCI  33
SPARTA*        CLOUDY    37  34  89 SW6       29.91R WCI  32
$$

ILZ064>066-069>071-074>076-080>082-084>086-088>090-092>094-250800-
SOUTH-CENTRAL ILLINOIS

CITY           SKY/WX    TMP DP  RH WIND       PRES   REMARKS
CARBONDALE     CLOUDY    39  31  72 W9        29.92R WCI  33
CAIRO*         CLOUDY    42  36  78 SW9       29.95R
EFFINGHAM*     DRIZZLE   37  32  85 SW10      29.87R WCI  29
MARION         CLOUDY    39  34  81 W7        29.92R WCI  34
MT. VERNON     CLOUDY    37  32  81 SW9       29.90R WCI  31
CENTRALIA*     RAIN      36  33  88 W12       29.89R WCI  28
SALEM*         CLOUDY    39  35  87 W8        29.88R WCI  33
METROPOLIS*    CLOUDY    40  37  88 W5        29.93R
$$

ILZ067-068-072-073-078-083-087-091-250800-
SOUTHEAST ILLINOIS

CITY           SKY/WX    TMP DP  RH WIND       PRES   REMARKS
LAWRENCEVILLE  CLOUDY    38  35  89 W12       29.86R WCI  30
FLORA*         PTCLDY    38  33  84 W7        29.88R WCI  32
FAIRFIELD*     CLOUDY    38  35  88 W6        29.88R WCI  33
HARRISBURG*    CLOUDY    39  35  88 SW8       29.92R WCI  33
ROBINSON*      CLOUDY    37  35  90 W10       29.86R WCI  30
CARMI*         CLOUDY    40  38  93 SW7       29.90R
$$

ABBREVIATIONS USED IN REMARKS
   TC - TEMPERATURE IN CELSIUS
  WCI - WIND CHILL INDEX
   HX - HEAT INDEX
  VSB - VISIBILITY
$$



USA.gov is the U.S. government's official web portal to all federal, state and local government web resources and services.